Rogers City, MI

4:48 PM EDT on September 20, 2017 (GMT -0400)
Presque Isle County

Weather History for KPZQ - September, 2013

Change the Weather History Date:

Sunday, September 22, 2013

  Actual Average (KAPN) Record (KAPN)
Temperature  
Mean Temperature 46 °F -  
Max Temperature 52 °F 63 °F 87 °F (1941)
Min Temperature 41 °F 42 °F 27 °F (1929)
Degree Days  
Heating Degree Days 18    
Moisture  
Dew Point 39 °F    
Average Humidity 74    
Maximum Humidity 90    
Minimum Humidity 56    
Precipitation  
Precipitation 0.00 in - - ()
Sea Level Pressure  
Sea Level Pressure 30.03 in    
Wind  
Wind Speed 7 mph (NW)    
Max Wind Speed 10 mph    
Max Gust Speed -    
Visibility 10 miles    
Events Rain    
Averages and records for this station are not official NWS values.
T = Trace of Precipitation, MM = Missing Value Source: NWS Daily Summary

Daily Weather History Graph

Daily Weather History Graph

Search for Another Location

Airport or City:

Trip Planner

Search our weather history database for the weather conditions in past years. The results will help you decide how hot, cold, wet, or windy it might be!

Date:

Astronomy

Sep. 22, 2013 Rise Set
Actual Time 7:22 AM EDT 7:32 PM EDT
Civil Twilight 6:53 AM EDT 8:01 PM EDT
Nautical Twilight 6:18 AM EDT 8:36 PM EDT
Astronomical Twilight 5:42 AM EDT 9:11 PM EDT
Moon 9:09 PM EDT (9/22) 10:53 AM EDT (9/22)
Length of Visible Light 13h 08m
Length of Day
12h 09m
Waning Gibbous, 89% of the Moon is Illuminated
Sep 22
Waning Gibbous
Sep 26
Last Quarter
Oct 4
New
Oct 11
First Quarter
Oct 18
Full

Hourly Weather History & Observations

Time (EDT) Temp. Windchill Dew Point Humidity Pressure Visibility Wind Dir Wind Speed Gust Speed Precip Events Conditions
12:15 AM 47.7 °F - 41.4 °F 79% 29.88 in 10.0 mi West 9.2 mph - N/A Rain Light Rain
12:34 AM 46.6 °F - 42.3 °F 85% 29.89 in 10.0 mi NW 6.9 mph - N/A   Overcast
12:55 AM 46.6 °F - 42.8 °F 87% 29.89 in 10.0 mi West 3.5 mph - N/A   Overcast
1:15 AM 46.4 °F 43.5 °F 43.0 °F 88% 29.89 in 10.0 mi West 5.8 mph - N/A   Overcast
1:34 AM 45.9 °F 44.6 °F 43.2 °F 90% 29.90 in 10.0 mi West 3.5 mph - N/A   Overcast
1:55 AM 46.2 °F 44.1 °F 43.5 °F 90% 29.90 in 10.0 mi West 4.6 mph - N/A   Overcast
2:14 AM 46.6 °F - 43.7 °F 90% 29.91 in 10.0 mi NW 8.1 mph - N/A   Overcast
2:35 AM 48.0 °F - 41.4 °F 78% 29.91 in 10.0 mi NNW 8.1 mph - N/A   Overcast
2:55 AM 47.5 °F - 39.4 °F 73% 29.91 in 10.0 mi NNW 9.2 mph - N/A   Scattered Clouds
3:15 AM 48.2 °F - 41.0 °F 76% 29.92 in 10.0 mi NNW 9.2 mph - N/A   Mostly Cloudy
3:35 AM 47.7 °F - 40.3 °F 76% 29.92 in 10.0 mi NNW 9.2 mph - N/A   Mostly Cloudy
3:55 AM 47.1 °F - 40.1 °F 77% 29.93 in 10.0 mi NNW 6.9 mph - N/A   Scattered Clouds
4:15 AM 46.8 °F - 39.9 °F 77% 29.93 in 10.0 mi NNW 8.1 mph - N/A   Mostly Cloudy
4:35 AM 46.4 °F 41.9 °F 39.7 °F 78% 29.94 in 10.0 mi NNW 9.2 mph - N/A   Scattered Clouds
4:55 AM 46.4 °F 42.4 °F 38.8 °F 75% 29.95 in 10.0 mi NNW 8.1 mph - N/A   Scattered Clouds
5:15 AM 45.7 °F 41.5 °F 38.1 °F 75% 29.96 in 10.0 mi NNW 8.1 mph - N/A   Scattered Clouds
5:35 AM 45.5 °F 41.3 °F 38.1 °F 75% 29.96 in 10.0 mi NNW 8.1 mph - N/A   Scattered Clouds
5:54 AM 45.1 °F 40.8 °F 37.8 °F 75% 29.97 in 10.0 mi NNW 8.1 mph - N/A   Scattered Clouds
6:15 AM 45.5 °F 41.8 °F 38.5 °F 76% 29.97 in 10.0 mi North 6.9 mph - N/A   Mostly Cloudy
6:34 AM 45.7 °F 42.7 °F 38.3 °F 75% 29.98 in 10.0 mi NNW 5.8 mph - N/A   Mostly Cloudy
6:55 AM 45.0 °F 39.7 °F 37.8 °F 76% 29.99 in 10.0 mi North 10.4 mph - N/A   Mostly Cloudy
7:14 AM 44.8 °F 41.0 °F 36.9 °F 74% 29.99 in 10.0 mi NNW 6.9 mph - N/A   Mostly Cloudy
7:35 AM 45.5 °F 43.2 °F 37.8 °F 74% 30.00 in 10.0 mi NNW 4.6 mph - N/A   Overcast
7:55 AM 45.1 °F 42.0 °F 37.6 °F 75% 30.01 in 10.0 mi NNW 5.8 mph - N/A   Overcast
8:15 AM 45.5 °F 41.3 °F 37.8 °F 74% 30.01 in 10.0 mi North 8.1 mph - N/A   Overcast
8:35 AM 45.7 °F 41.5 °F 37.6 °F 73% 30.01 in 10.0 mi North 8.1 mph - N/A   Overcast
8:54 AM 46.0 °F 41.9 °F 37.8 °F 73% 30.02 in 10.0 mi NNW 8.1 mph - N/A   Overcast
9:15 AM 46.2 °F 41.7 °F 37.9 °F 73% 30.02 in 10.0 mi NNW 9.2 mph - N/A   Overcast
9:35 AM 47.1 °F - 38.1 °F 71% 30.04 in 10.0 mi North 8.1 mph - N/A   Overcast
9:54 AM 46.8 °F - 38.3 °F 72% 30.05 in 10.0 mi North 9.2 mph - N/A   Overcast
10:15 AM 47.5 °F - 38.8 °F 72% 30.06 in 10.0 mi North 8.1 mph - N/A   Overcast
10:35 AM 47.7 °F - 38.8 °F 71% 30.06 in 10.0 mi NNW 9.2 mph - N/A   Overcast
10:55 AM 47.5 °F - 38.7 °F 71% 30.07 in 10.0 mi North 8.1 mph - N/A   Overcast
11:15 AM 48.2 °F - 40.1 °F 74% 30.07 in 10.0 mi North 6.9 mph - N/A   Overcast
11:35 AM 48.4 °F - 39.7 °F 72% 30.07 in 10.0 mi North 6.9 mph - N/A   Mostly Cloudy
11:55 AM 49.3 °F - 40.1 °F 71% 30.07 in 10.0 mi NNW 9.2 mph - N/A   Scattered Clouds
12:15 PM 50.0 °F - 40.5 °F 70% 30.07 in 10.0 mi NNW 8.1 mph - N/A   Clear
12:34 PM 50.7 °F - 41.0 °F 69% 30.08 in 10.0 mi North 6.9 mph - N/A   Clear
12:55 PM 50.9 °F - 40.6 °F 68% 30.08 in 10.0 mi North 9.2 mph - N/A   Clear
1:15 PM 51.6 °F - 41.2 °F 68% 30.08 in 10.0 mi North 6.9 mph - N/A   Scattered Clouds
1:35 PM 51.3 °F - 41.0 °F 68% 30.08 in 10.0 mi NNW 6.9 mph - N/A   Scattered Clouds
1:55 PM 49.8 °F - 40.5 °F 70% 30.08 in 10.0 mi North 9.2 mph - N/A   Mostly Cloudy
2:14 PM 51.3 °F - 40.6 °F 67% 30.07 in 10.0 mi North 5.8 mph - N/A   Scattered Clouds
2:35 PM 51.1 °F - 40.3 °F 67% 30.07 in 10.0 mi North 6.9 mph - N/A   Clear
2:54 PM 51.4 °F - 40.8 °F 67% 30.07 in 10.0 mi North 5.8 mph - N/A   Clear
3:15 PM 51.8 °F - 39.7 °F 63% 30.07 in 10.0 mi North 6.9 mph - N/A   Clear
3:34 PM 52.2 °F - 40.1 °F 64% 30.07 in 10.0 mi North 6.9 mph - N/A   Clear
3:55 PM 52.2 °F - 40.3 °F 64% 30.07 in 10.0 mi North 6.9 mph - N/A   Clear
4:15 PM 52.5 °F - 39.7 °F 62% 30.07 in 10.0 mi North 8.1 mph - N/A   Clear
4:35 PM 52.9 °F - 39.7 °F 61% 30.07 in 10.0 mi North 9.2 mph - N/A   Clear
4:55 PM 52.9 °F - 38.8 °F 59% 30.07 in 10.0 mi North 6.9 mph - N/A   Clear
5:15 PM 52.7 °F - 38.8 °F 59% 30.07 in 10.0 mi NNW 4.6 mph - N/A   Clear
5:35 PM 52.5 °F - 38.5 °F 59% 30.07 in 10.0 mi North 4.6 mph - N/A   Clear
5:55 PM 52.9 °F - 37.8 °F 56% 30.07 in 10.0 mi NNW 6.9 mph - N/A   Clear
6:14 PM 52.5 °F - 38.1 °F 58% 30.07 in 10.0 mi NNW 6.9 mph - N/A   Clear
6:35 PM 52.2 °F - 38.8 °F 60% 30.07 in 10.0 mi NW 4.6 mph - N/A   Clear
6:55 PM 51.4 °F - 39.2 °F 63% 30.07 in 10.0 mi WNW 4.6 mph - N/A   Clear
7:14 PM 50.9 °F - 39.4 °F 65% 30.07 in 10.0 mi Calm Calm - N/A   Clear
7:35 PM 48.9 °F - 39.6 °F 70% 30.07 in 10.0 mi Calm Calm - N/A   Clear
7:54 PM 47.3 °F - 39.4 °F 74% 30.08 in 10.0 mi WSW 4.6 mph - N/A   Clear
8:15 PM 45.0 °F 43.5 °F 39.6 °F 81% 30.08 in 10.0 mi SW 3.5 mph - N/A   Clear
8:35 PM 43.7 °F 42.1 °F 39.2 °F 84% 30.09 in 10.0 mi WSW 3.5 mph - N/A   Clear
8:54 PM 43.0 °F 40.3 °F 38.3 °F 84% 30.09 in 10.0 mi SW 4.6 mph - N/A   Clear
9:15 PM 42.8 °F 41.1 °F 38.7 °F 85% 30.10 in 10.0 mi WSW 3.5 mph - N/A   Clear
9:35 PM 41.9 °F 39.0 °F 38.3 °F 87% 30.10 in 10.0 mi WSW 4.6 mph - N/A   Clear
9:55 PM 41.5 °F 37.8 °F 37.4 °F 85% 30.10 in 10.0 mi WSW 5.8 mph - N/A   Clear
10:15 PM 43.0 °F 41.3 °F 38.5 °F 84% 30.11 in 10.0 mi West 3.5 mph - N/A   Clear
10:34 PM 43.7 °F 41.1 °F 38.5 °F 82% 30.12 in 10.0 mi West 4.6 mph - N/A   Clear
10:55 PM 43.3 °F 40.7 °F 38.3 °F 82% 30.11 in 10.0 mi West 4.6 mph - N/A   Clear
11:15 PM 41.9 °F 40.0 °F 37.6 °F 85% 30.11 in 10.0 mi WSW 3.5 mph - N/A   Clear
11:34 PM 41.7 °F 39.8 °F 37.6 °F 85% 30.12 in 10.0 mi West 3.5 mph - N/A   Clear
11:55 PM 41.2 °F 38.2 °F 37.0 °F 85% 30.12 in 10.0 mi WSW 4.6 mph - N/A   Clear